US 1 @ Appoquinimink River, Odessa DE USA current weather conditions

sailwx.info

Wind from 275 at 8 knots gusting 12

Air temperature 9.1° C
Dewpoint -1.3° C

Last reported at 2019-Dec-06 17:00 UTC.
Time now 2019-Dec-06 17:59 UTC

Location: N 39°26' W 075°40'.
View on Google Maps.

See reports from other nearby stations

  
Tides and Currents Weather Stations Pressure Air Temp Water Temp Dewpoint Dewpoint Depression Visibility Wind Speed Wind Dir Waves Ship Positions
date/time (UTC)wind fromknots sea level pressurealtimeterstation pressurevisibilityair tempwater tempwave heightnotes
2019-Dec-06 17:00 275 8 gusting 12 9.1
2019-Dec-06 16:55 265 9 gusting 14 9.0
2019-Dec-06 16:50 270 10 gusting 15 9.0
2019-Dec-06 16:45 275 7 gusting 16 8.7
2019-Dec-06 16:40 255 10 gusting 16 8.7
2019-Dec-06 16:35 240 9 gusting 16 8.6
2019-Dec-06 16:30 295 9 gusting 18 8.5
2019-Dec-06 16:25 275 12 gusting 18 8.3
2019-Dec-06 16:20 255 9 gusting 18 8.3
2019-Dec-06 16:15 245 11 gusting 18 8.3
2019-Dec-06 16:10 275 11 gusting 18 8.2
2019-Dec-06 16:05 260 12 gusting 16 8.0
2019-Dec-06 16:00 260 11 gusting 16 7.7
2019-Dec-06 15:55 280 8 gusting 13 7.5
2019-Dec-06 15:50 280 9 gusting 13 7.1
2019-Dec-06 15:45 265 9 gusting 13 7.1
2019-Dec-06 15:40 280 9 gusting 13 7.0
2019-Dec-06 15:35 270 8 gusting 14 7.0
2019-Dec-06 15:30 280 8 gusting 17 6.7
2019-Dec-06 15:25 285 10 gusting 17 6.6
2019-Dec-06 15:20 280 9 gusting 18 6.6
2019-Dec-06 15:15 285 11 gusting 19 6.6
2019-Dec-06 15:10 265 10 gusting 19 6.6
2019-Dec-06 15:05 250 8 gusting 13 6.5
2019-Dec-06 15:00 255 8 gusting 13 6.5
2019-Dec-06 14:55 275 8 gusting 13 6.3
2019-Dec-06 14:50 270 7 gusting 13 6.3
2019-Dec-06 14:45 270 8 gusting 13 6.1
2019-Dec-06 14:40 260 7 gusting 12 6.1
2019-Dec-06 14:35 270 7 gusting 13 6.3
2019-Dec-06 14:30 230 8 gusting 13 6.2
2019-Dec-06 14:25 280 6 gusting 10 5.8
2019-Dec-06 14:20 275 6 gusting 9 5.5
2019-Dec-06 14:15 270 7 gusting 10 5.1
2019-Dec-06 14:10 260 6 gusting 10 5.1
2019-Dec-06 14:05 265 8 gusting 11 4.8
2019-Dec-06 14:00 280 6 gusting 11 4.6
2019-Dec-06 13:55 300 6 gusting 10 4.5
2019-Dec-06 13:50 310 7 gusting 12 4.6
2019-Dec-06 13:45 265 9 gusting 12 4.8
2019-Dec-06 13:40 260 7 gusting 12 4.7
2019-Dec-06 13:35 300 7 gusting 12 4.6
2019-Dec-06 13:30 275 7 gusting 11 4.6
2019-Dec-06 13:25 265 7 gusting 11 4.6
2019-Dec-06 13:20 275 7 gusting 11 4.1
2019-Dec-06 13:15 265 7 gusting 10 3.7
2019-Dec-06 13:10 295 5 gusting 8 3.5
2019-Dec-06 13:05 285 6 gusting 8 3.1
2019-Dec-06 13:00 230 5 gusting 7 2.7
2019-Dec-06 12:55 275 6 gusting 7 2.5
2019-Dec-06 12:50 285 5 gusting 7 2.1
2019-Dec-06 12:45 285 5 gusting 7 1.9
2019-Dec-06 12:40 270 5 gusting 7 1.5
2019-Dec-06 12:35 275 5 gusting 7 1.5
2019-Dec-06 12:30 265 5 gusting 8 0.8
2019-Dec-06 12:25 275 5 gusting 7 1.0
2019-Dec-06 12:20 275 5 gusting 7 1.4
2019-Dec-06 12:15 250 4 gusting 7 1.0
2019-Dec-06 12:10 220 4 gusting 9 0.7
2019-Dec-06 12:05 245 5 gusting 9 1.0
2019-Dec-06 12:00 275 4 gusting 7 1.2
2019-Dec-06 11:55 295 4 gusting 6 1.5
2019-Dec-06 11:50 245 4 gusting 6 1.6
2019-Dec-06 11:45 175 4 gusting 7 1.6
2019-Dec-06 11:40 265 4 gusting 7 1.2
2019-Dec-06 11:35 265 5 gusting 7 0.7
2019-Dec-06 11:30 275 5 gusting 6 0.7
2019-Dec-06 11:25 270 4 gusting 6 0.5
2019-Dec-06 11:20 265 5 gusting 6 0.1
2019-Dec-06 11:15 260 5 gusting 6 0.1
2019-Dec-06 11:10 280 4 gusting 6 0.1
2019-Dec-06 11:05 050 4 gusting 6 0.2
2019-Dec-06 11:00 275 4 gusting 6 0.1
2019-Dec-06 10:55 320 4 gusting 6 -0.0
2019-Dec-06 10:50 275 5 gusting 6 0.2
2019-Dec-06 10:45 010 5 gusting 6 0.1
2019-Dec-06 10:40 280 5 gusting 6 -0.3
2019-Dec-06 10:35 275 5 gusting 6 -0.4
2019-Dec-06 10:30 285 5 gusting 6 -0.4
2019-Dec-06 10:25 295 5 gusting 6 -0.4
2019-Dec-06 10:20 305 5 gusting 6 -0.4
2019-Dec-06 10:15 305 5 gusting 6 -0.3
2019-Dec-06 10:10 325 5 gusting 6 -0.3
2019-Dec-06 10:05 350 5 gusting 6 -0.1
2019-Dec-06 10:00 355 5 gusting 8 -0.1
2019-Dec-06 09:55 215 5 gusting 8 -0.0
2019-Dec-06 09:50 185 5 gusting 7 -0.1
2019-Dec-06 09:45 030 4 gusting 6 0.1
2019-Dec-06 09:40 285 4 gusting 6 0.2
2019-Dec-06 09:35 200 4 gusting 5 0.2
2019-Dec-06 09:30 245 4 gusting 5 0.3
2019-Dec-06 09:25 335 4 gusting 5 0.5
2019-Dec-06 09:20 345 4 gusting 6 0.6
2019-Dec-06 09:15 195 4 gusting 6 0.7
2019-Dec-06 09:10 285 4 gusting 7 0.6
2019-Dec-06 09:05 210 5 gusting 7 0.3
2019-Dec-06 09:00 175 4 gusting 6 0.6
2019-Dec-06 08:55 320 4 gusting 5 0.7
2019-Dec-06 08:50 005 4 gusting 5 0.8
2019-Dec-06 08:45 330 4 gusting 6 1.0
2019-Dec-06 08:40 285 4 gusting 7 1.2
2019-Dec-06 08:35 225 4 gusting 7 1.4
2019-Dec-06 08:30 195 5 gusting 7 1.1
2019-Dec-06 08:25 210 5 gusting 6 1.1
2019-Dec-06 08:20 285 4 gusting 5 1.2
2019-Dec-06 08:15 320 4 gusting 6 1.2
2019-Dec-06 08:10 320 4 gusting 6 1.2
2019-Dec-06 08:05 355 5 gusting 8 1.6
2019-Dec-06 08:00 170 4 gusting 8 1.7
2019-Dec-06 07:55 185 4 gusting 5 1.5
2019-Dec-06 07:50 125 3 gusting 6 1.2
2019-Dec-06 07:45 140 3 gusting 6 1.4
2019-Dec-06 07:40 215 5 gusting 6 1.5
2019-Dec-06 07:35 165 4 gusting 6 1.1
2019-Dec-06 07:30 105 3 gusting 5 1.6
2019-Dec-06 07:25 270 4 gusting 6 1.6
2019-Dec-06 07:20 325 5 gusting 6 1.6
2019-Dec-06 07:15 310 5 gusting 7 1.2
2019-Dec-06 07:10 305 6 gusting 7 1.4
2019-Dec-06 07:05 310 6 gusting 8 1.5
2019-Dec-06 07:00 300 6 gusting 9 1.6
2019-Dec-06 06:55 295 6 gusting 9 1.5
2019-Dec-06 06:50 295 6 gusting 9 1.4
2019-Dec-06 06:45 300 7 gusting 9 1.4
2019-Dec-06 06:40 305 7 gusting 9 1.5
2019-Dec-06 06:35 305 7 gusting 10 1.6
2019-Dec-06 06:30 300 7 gusting 10 1.6
2019-Dec-06 06:25 295 8 gusting 9 1.4
2019-Dec-06 06:20 295 7 gusting 8 1.1
2019-Dec-06 06:15 305 7 gusting 8 1.0
2019-Dec-06 06:10 305 6 gusting 8 1.1
2019-Dec-06 06:05 300 7 gusting 8 1.6
2019-Dec-06 06:00 285 6 gusting 8 1.7
2019-Dec-06 05:55 280 6 gusting 8 1.6
2019-Dec-06 05:50 280 5 gusting 7 0.8
2019-Dec-06 05:45 290 6 gusting 7 0.8
2019-Dec-06 05:40 335 6 gusting 8 0.8
2019-Dec-06 05:35 305 6 gusting 8 1.0
2019-Dec-06 05:30 310 6 gusting 9 1.1
2019-Dec-06 05:25 325 7 gusting 10 1.1
2019-Dec-06 05:20 320 9 gusting 10 1.1
2019-Dec-06 05:15 325 6 gusting 8 1.5
2019-Dec-06 05:10 325 5 gusting 7 1.9
2019-Dec-06 05:05 310 6 gusting 8 1.9
2019-Dec-06 05:00 310 6 gusting 9 1.9
2019-Dec-06 04:55 320 7 gusting 9 2.0
2019-Dec-06 04:50 325 8 gusting 9 2.1
2019-Dec-06 04:45 320 8 gusting 9 2.2
2019-Dec-06 04:40 330 6 gusting 9 2.6
2019-Dec-06 04:35 335 7 gusting 8 2.4
2019-Dec-06 04:30 330 6 gusting 8 2.5
2019-Dec-06 04:25 315 7 gusting 9 2.6
2019-Dec-06 04:20 320 7 gusting 9 2.6
2019-Dec-06 04:15 335 7 gusting 9 2.6
2019-Dec-06 04:10 355 7 gusting 9 2.6
2019-Dec-06 04:05 330 7 gusting 11 2.7
2019-Dec-06 04:00 325 8 gusting 11 3.1
2019-Dec-06 03:55 305 8 gusting 11 3.0
2019-Dec-06 03:50 320 9 gusting 13 2.9
2019-Dec-06 03:45 335 10 gusting 13 2.7
2019-Dec-06 03:40 335 10 gusting 12 2.9
2019-Dec-06 03:35 330 10 gusting 12 3.1
2019-Dec-06 03:30 310 9 gusting 11 3.4
2019-Dec-06 03:25 310 8 gusting 11 3.2
2019-Dec-06 03:20 320 8 gusting 11 3.1
2019-Dec-06 03:15 325 9 gusting 12 2.9
2019-Dec-06 03:10 330 9 gusting 12 3.0
2019-Dec-06 03:05 335 9 gusting 12 3.1
2019-Dec-06 03:00 320 8 gusting 12 3.2
2019-Dec-06 02:55 315 9 gusting 12 3.6
2019-Dec-06 02:50 310 9 gusting 12 3.5
2019-Dec-06 02:45 320 9 gusting 13 3.2
2019-Dec-06 02:40 325 9 gusting 13 3.1
2019-Dec-06 02:35 325 10 gusting 12 3.1
2019-Dec-06 02:30 330 10 gusting 12 3.1
2019-Dec-06 02:25 340 9 gusting 13 3.1
2019-Dec-06 02:20 330 10 gusting 13 3.2
2019-Dec-06 02:15 330 9 gusting 12 3.5
2019-Dec-06 02:10 325 8 gusting 12 3.6
2019-Dec-06 02:05 320 9 gusting 13 3.9
2019-Dec-06 02:00 325 10 gusting 13 3.9
2019-Dec-06 01:55 325 10 gusting 13 3.9
2019-Dec-06 01:50 320 9 gusting 13 3.6
2019-Dec-06 01:45 325 9 gusting 14 3.6
2019-Dec-06 01:40 335 9 gusting 14 3.7
2019-Dec-06 01:35 335 10 gusting 14 3.7
2019-Dec-06 01:30 335 11 gusting 14 3.7
2019-Dec-06 01:25 335 10 gusting 14 3.9
2019-Dec-06 01:20 320 9 gusting 13 4.1
2019-Dec-06 01:15 320 10 gusting 12 4.2
2019-Dec-06 01:10 325 9 gusting 11 4.2
2019-Dec-06 01:05 325 9 gusting 12 4.3
2019-Dec-06 01:00 330 9 gusting 13 4.5
2019-Dec-06 00:55 340 10 gusting 13 4.5
2019-Dec-06 00:50 335 10 gusting 15 4.6
2019-Dec-06 00:45 340 11 gusting 16 4.6
2019-Dec-06 00:40 350 12 gusting 17 4.6
2019-Dec-06 00:35 345 11 gusting 17 4.7
2019-Dec-06 00:30 335 11 gusting 17 4.6
2019-Dec-06 00:25 345 12 gusting 16 4.8
2019-Dec-06 00:20 330 11 gusting 16 4.8
2019-Dec-06 00:15 340 11 gusting 18 5.0
2019-Dec-06 00:10 320 11 gusting 15 5.0
2019-Dec-06 00:05 330 10 gusting 14 5.1
2019-Dec-06 00:00 330 11 gusting 20 5.1
2019-Dec-05 23:55 335 11 gusting 20 5.1
2019-Dec-05 23:50 335 12 gusting 16 5.1
2019-Dec-05 23:45 350 10 gusting 16 5.1
2019-Dec-05 23:40 355 11 gusting 18 5.1
2019-Dec-05 23:35 5.1
2019-Dec-05 23:30 340 10 gusting 18 5.1
2019-Dec-05 23:25 340 10 gusting 14 5.1
2019-Dec-05 23:20 335 9 gusting 11 5.0
2019-Dec-05 23:15 330 8 gusting 10 5.2
2019-Dec-05 23:10 320 8 gusting 11 5.3
2019-Dec-05 23:05 330 8 gusting 11 5.3
2019-Dec-05 23:00 330 9 gusting 13 5.6
2019-Dec-05 22:55 335 8 gusting 16 5.6
2019-Dec-05 22:50 340 11 gusting 16 5.6
2019-Dec-05 22:45 355 10 gusting 13 5.6
2019-Dec-05 22:40 005 9 gusting 19 5.7
2019-Dec-05 22:35 005 10 gusting 20 5.8
2019-Dec-05 22:30 6.0
2019-Dec-05 22:25 6.1
2019-Dec-05 22:20 6.1
2019-Dec-05 22:15 6.1
2019-Dec-05 22:10 010 13 gusting 20 6.2
2019-Dec-05 22:05 355 14 gusting 20 6.2
2019-Dec-05 22:00 005 15 gusting 20 6.3
2019-Dec-05 21:55 005 14 gusting 23 6.3
2019-Dec-05 21:50 355 15 gusting 23 6.3
2019-Dec-05 21:45 355 14 gusting 20 6.5
2019-Dec-05 21:40 005 13 gusting 23 6.5
2019-Dec-05 21:35 355 17 gusting 25 6.5
2019-Dec-05 21:30 340 15 gusting 26 6.6
2019-Dec-05 21:25 350 15 gusting 26 6.6
2019-Dec-05 21:20 350 17 gusting 28 6.6
2019-Dec-05 21:15 355 13 gusting 28 6.6
2019-Dec-05 21:10 010 16 gusting 28 6.7
2019-Dec-05 21:05 010 17 gusting 28 6.8
2019-Dec-05 21:00 355 13 gusting 22 7.1
2019-Dec-05 20:55 7.2
2019-Dec-05 20:50 355 16 gusting 23 7.3
2019-Dec-05 20:45 340 16 gusting 23 7.1
2019-Dec-05 20:40 7.2
2019-Dec-05 20:35 350 14 gusting 24 7.0
2019-Dec-05 20:30 7.0
2019-Dec-05 20:25 355 12 gusting 25 6.8
2019-Dec-05 20:20 345 19 gusting 24 6.8
2019-Dec-05 20:15 335 16 gusting 21 7.1
2019-Dec-05 20:10 005 11 gusting 18 7.1
2019-Dec-05 20:05 7.1
2019-Dec-05 20:00 015 12 gusting 23 7.1
2019-Dec-05 19:55 7.1
2019-Dec-05 19:50 355 12 gusting 23 7.1
2019-Dec-05 19:45 7.1
2019-Dec-05 19:40 355 16 gusting 24 7.2
2019-Dec-05 19:35 7.2
2019-Dec-05 19:30 005 20 gusting 28 7.2
2019-Dec-05 19:25 015 16 gusting 23 7.1
2019-Dec-05 19:20 355 16 gusting 26 7.1
2019-Dec-05 19:15 345 17 gusting 28 7.1
2019-Dec-05 19:10 345 20 gusting 28 7.1
2019-Dec-05 19:05 7.1
2019-Dec-05 19:00 355 18 gusting 28 7.2
2019-Dec-05 18:55 005 17 gusting 24 7.6
2019-Dec-05 18:50 350 15 gusting 23 7.3
2019-Dec-05 18:45 350 12 gusting 25 7.1
2019-Dec-05 18:40 355 19 gusting 25 6.8
2019-Dec-05 18:35 005 15 gusting 23 6.7
2019-Dec-05 18:30 010 14 gusting 23 6.8
2019-Dec-05 18:25 355 14 gusting 21 6.7
2019-Dec-05 18:20 345 14 gusting 30 6.7
2019-Dec-05 18:15 005 18 gusting 30 6.6
2019-Dec-05 18:10 350 20 gusting 28 7.0
2019-Dec-05 18:05 345 14 gusting 28 7.8
2019-Dec-05 18:00 355 15 gusting 27 7.1
2019-Dec-05 17:55 005 17 gusting 27 6.7
2019-Dec-05 17:50 7.1
2019-Dec-05 17:45 340 21 gusting 30 7.6
2019-Dec-05 17:40 340 20 gusting 26 7.6
2019-Dec-05 17:35 355 18 gusting 25 7.7
2019-Dec-05 17:30 330 17 gusting 25 7.3
2019-Dec-05 17:25 335 14 gusting 24 7.3
2019-Dec-05 17:20 345 16 gusting 22 7.2
2019-Dec-05 17:15 005 15 gusting 26 6.8
2019-Dec-05 17:10 015 16 gusting 28 5.6
2019-Dec-05 17:05 355 15 gusting 28 5.7
2019-Dec-05 17:00 355 16 gusting 28 5.7
2019-Dec-05 16:55 350 18 gusting 27 5.6
2019-Dec-05 16:50 5.6
2019-Dec-05 16:45 5.6
2019-Dec-05 16:40 355 11 gusting 27 5.6
2019-Dec-05 16:35 015 18 gusting 27 5.5
2019-Dec-05 16:30 005 14 gusting 30 5.6
2019-Dec-05 16:25 355 20 gusting 30 5.3
2019-Dec-05 16:20 350 23 gusting 29 5.5
2019-Dec-05 16:10 345 15 gusting 26 5.6
2019-Dec-05 16:05 350 16 gusting 25 5.6
2019-Dec-05 16:00 345 13 gusting 26 5.7
2019-Dec-05 15:55 025 17 gusting 26 5.7
2019-Dec-05 15:50 350 15 gusting 21 5.8
2019-Dec-05 15:45 005 13 gusting 22 6.0
2019-Dec-05 15:40 350 15 gusting 22 6.0
2019-Dec-05 15:35 340 14 gusting 22 6.2
2019-Dec-05 15:30 015 15 gusting 19 6.6
2019-Dec-05 15:25 010 13 gusting 20 6.6
2019-Dec-05 15:20 005 12 gusting 24 6.2
2019-Dec-05 15:15 5.6
2019-Dec-05 15:10 355 18 gusting 25 5.8
2019-Dec-05 15:05 350 13 gusting 25 5.8
2019-Dec-05 15:00 340 18 gusting 25 5.8
2019-Dec-05 14:55 010 13 gusting 27 5.8
2019-Dec-05 14:50 5.8
2019-Dec-05 14:45 5.8
2019-Dec-05 14:40 5.7
2019-Dec-05 14:35 355 11 gusting 20 5.6
2019-Dec-05 14:30 010 13 gusting 19 5.3
2019-Dec-05 14:25 350 11 gusting 19 5.5
2019-Dec-05 14:20 340 14 gusting 19 5.6
2019-Dec-05 14:15 345 12 gusting 17 5.6
2019-Dec-05 14:10 340 11 gusting 17 5.5
2019-Dec-05 14:05 335 12 gusting 17 5.3
2019-Dec-05 14:00 335 12 gusting 17 5.3
2019-Dec-05 13:55 345 13 gusting 17 5.3
2019-Dec-05 13:50 340 13 gusting 18 5.1
2019-Dec-05 13:45 350 12 gusting 18 5.1
2019-Dec-05 13:40 345 13 gusting 19 5.1
2019-Dec-05 13:35 335 12 gusting 19 5.2
2019-Dec-05 13:30 350 14 gusting 18 5.2
2019-Dec-05 13:25 355 12 gusting 17 5.1
2019-Dec-05 13:20 340 12 gusting 19 5.1
2019-Dec-05 13:15 345 13 gusting 19 5.1
2019-Dec-05 13:10 345 10 gusting 16 5.0
2019-Dec-05 13:05 330 12 gusting 16 5.0
2019-Dec-05 13:00 335 12 gusting 17 4.7
2019-Dec-05 12:55 355 11 gusting 17 4.7
2019-Dec-05 12:50 335 11 gusting 16 4.7
2019-Dec-05 12:45 335 10 gusting 16 4.6
2019-Dec-05 12:40 340 11 gusting 16 4.6
2019-Dec-05 12:35 335 12 gusting 16 4.6
2019-Dec-05 12:30 340 12 gusting 16 4.5
2019-Dec-05 12:25 340 10 gusting 13 4.3
2019-Dec-05 12:20 340 11 gusting 14 4.3
2019-Dec-05 12:15 335 11 gusting 14 4.3
2019-Dec-05 12:10 330 11 gusting 16 4.1
2019-Dec-05 12:05 335 10 gusting 16 4.1
2019-Dec-05 12:00 345 10 gusting 14 4.1
2019-Dec-05 11:55 335 10 gusting 14 4.1
2019-Dec-05 11:50 330 12 gusting 14 4.1
2019-Dec-05 11:45 325 9 gusting 13 4.1
2019-Dec-05 11:40 330 10 gusting 13 4.1
2019-Dec-05 11:35 335 10 gusting 14 4.1
2019-Dec-05 11:30 335 10 gusting 15 4.1
2019-Dec-05 11:25 325 13 gusting 15 4.0
2019-Dec-05 11:20 325 10 gusting 15 4.0
2019-Dec-05 11:15 335 13 gusting 15 4.0
2019-Dec-05 11:10 340 11 gusting 15 4.1
2019-Dec-05 11:05 335 12 gusting 14 4.1
2019-Dec-05 11:00 335 12 gusting 15 4.1
2019-Dec-05 10:55 335 12 gusting 15 4.1
2019-Dec-05 10:50 330 11 gusting 15 4.1
2019-Dec-05 10:45 330 11 gusting 15 4.1
2019-Dec-05 10:40 325 10 gusting 16 4.0
2019-Dec-05 10:35 325 13 gusting 16 4.0
2019-Dec-05 10:30 325 12 gusting 15 3.9
2019-Dec-05 10:25 315 10 gusting 14 3.7
2019-Dec-05 10:20 325 11 gusting 15 3.7
2019-Dec-05 10:15 320 11 gusting 15 3.7
2019-Dec-05 10:10 310 12 gusting 15 3.7
2019-Dec-05 10:05 325 11 gusting 15 3.7
2019-Dec-05 10:00 320 11 gusting 15 4.0
2019-Dec-05 09:55 320 10 gusting 14 3.9
2019-Dec-05 09:50 315 10 gusting 13 3.9
2019-Dec-05 09:45 325 9 gusting 12 4.0
2019-Dec-05 09:40 325 10 gusting 14 4.1
2019-Dec-05 09:35 335 11 gusting 17 4.1
2019-Dec-05 09:30 340 12 gusting 17 4.1
2019-Dec-05 09:25 330 13 gusting 16 4.2
2019-Dec-05 09:20 335 11 gusting 16 4.1
2019-Dec-05 09:15 330 11 gusting 15 4.2
2019-Dec-05 09:10 330 12 gusting 15 4.1
2019-Dec-05 09:05 335 11 gusting 14 4.2
2019-Dec-05 09:00 335 12 gusting 15 4.1
2019-Dec-05 08:55 335 11 gusting 16 4.2
2019-Dec-05 08:50 325 11 gusting 17 4.3
2019-Dec-05 08:45 340 11 gusting 17 4.2
2019-Dec-05 08:40 325 11 gusting 16 4.2
2019-Dec-05 08:35 340 9 gusting 13 4.2
2019-Dec-05 08:30 330 9 gusting 13 4.3
2019-Dec-05 08:25 330 9 gusting 12 4.2
2019-Dec-05 08:20 335 10 gusting 15 4.2
2019-Dec-05 08:15 330 12 gusting 15 4.2
2019-Dec-05 08:10 320 10 gusting 13 4.1
2019-Dec-05 08:05 340 9 gusting 12 4.1
2019-Dec-05 08:00 320 9 gusting 12 4.3
2019-Dec-05 07:55 305 9 gusting 11 4.3
2019-Dec-05 07:50 315 9 gusting 11 4.2
2019-Dec-05 07:45 315 8 gusting 12 4.2
2019-Dec-05 07:40 330 9 gusting 15 4.2
2019-Dec-05 07:35 335 10 gusting 15 4.2
2019-Dec-05 07:30 330 11 gusting 17 4.1
2019-Dec-05 07:25 330 12 gusting 17 4.2
2019-Dec-05 07:20 330 9 gusting 15 4.1
2019-Dec-05 07:15 335 11 gusting 15 4.1
2019-Dec-05 07:10 335 9 gusting 13 4.1
2019-Dec-05 07:05 335 9 gusting 13 4.0
2019-Dec-05 07:00 335 10 gusting 14 4.1
2019-Dec-05 06:55 335 10 gusting 14 4.1
2019-Dec-05 06:50 335 10 gusting 14 4.0
2019-Dec-05 06:45 330 11 gusting 14 4.0
2019-Dec-05 06:40 340 11 gusting 14 4.0
2019-Dec-05 06:35 335 9 gusting 13 3.7
2019-Dec-05 06:30 335 9 gusting 13 3.7
2019-Dec-05 06:25 340 9 gusting 13 3.6
2019-Dec-05 06:20 325 9 gusting 12 3.4
2019-Dec-05 06:15 335 9 gusting 12 3.5
2019-Dec-05 06:10 325 8 gusting 11 3.6
2019-Dec-05 06:05 325 8 gusting 10 3.7
2019-Dec-05 06:00 315 8 gusting 10 3.7
2019-Dec-05 05:55 325 8 gusting 11 3.9
2019-Dec-05 05:50 330 9 gusting 12 3.9
2019-Dec-05 05:45 330 9 gusting 12 3.9
2019-Dec-05 05:40 335 9 gusting 13 3.9
2019-Dec-05 05:35 325 9 gusting 13 4.1
2019-Dec-05 05:30 340 10 gusting 14 4.1
2019-Dec-05 05:25 340 11 gusting 15 4.0
2019-Dec-05 05:20 335 11 gusting 16 4.1
2019-Dec-05 05:15 335 12 gusting 16 4.1
2019-Dec-05 05:10 340 11 gusting 15 4.1
2019-Dec-05 05:05 335 12 gusting 15 4.1
2019-Dec-05 05:00 335 12 gusting 17 4.1
2019-Dec-05 04:55 335 11 gusting 17 4.1
2019-Dec-05 04:50 340 12 gusting 22 4.1
2019-Dec-05 04:45 335 12 gusting 22 4.2
2019-Dec-05 04:40 340 11 gusting 17 4.0
2019-Dec-05 04:35 330 11 gusting 15 3.9
2019-Dec-05 04:30 345 12 gusting 15 3.7
2019-Dec-05 04:25 330 9 gusting 12 4.0
2019-Dec-05 04:20 310 9 gusting 12 4.1
2019-Dec-05 04:15 320 9 gusting 13 4.1
2019-Dec-05 04:10 305 11 gusting 13 4.1
2019-Dec-05 04:05 305 8 gusting 12 4.1
2019-Dec-05 04:00 300 9 gusting 13 4.1
2019-Dec-05 03:55 300 10 gusting 13 4.1
2019-Dec-05 03:50 300 10 gusting 13 4.1
2019-Dec-05 03:45 300 9 gusting 12 4.1
2019-Dec-05 03:40 305 10 gusting 12 4.2
2019-Dec-05 03:35 305 9 gusting 12 4.2
2019-Dec-05 03:30 315 9 gusting 12 4.2
2019-Dec-05 03:25 335 7 gusting 11 4.1
2019-Dec-05 03:20 325 7 gusting 9 4.1
2019-Dec-05 03:15 305 7 gusting 10 4.1
2019-Dec-05 03:10 300 8 gusting 10 4.1
2019-Dec-05 03:05 305 8 gusting 10 4.1
2019-Dec-05 03:00 310 7 gusting 10 4.1
2019-Dec-05 02:55 310 7 gusting 9 4.1
2019-Dec-05 02:50 315 6 gusting 7 4.1
2019-Dec-05 02:45 325 6 gusting 7 4.3
2019-Dec-05 02:40 335 6 gusting 8 4.5
2019-Dec-05 02:35 330 6 gusting 8 4.5
2019-Dec-05 02:30 340 6 gusting 10 4.3
2019-Dec-05 02:25 345 7 gusting 10 4.3
2019-Dec-05 02:20 345 7 gusting 9 4.3
2019-Dec-05 02:15 330 7 gusting 8 4.3
2019-Dec-05 02:10 335 6 gusting 9 4.5
2019-Dec-05 02:05 4.5
2019-Dec-05 02:00 350 6 gusting 8 4.6
2019-Dec-05 01:55 005 6 gusting 8 4.5
2019-Dec-05 01:50 010 6 gusting 8 4.3
2019-Dec-05 01:45 4.2
2019-Dec-05 01:40 160 4 gusting 7 4.3
2019-Dec-05 01:35 4.2
2019-Dec-05 01:30 025 5 gusting 7 4.2
2019-Dec-05 01:25 030 5 gusting 9 4.3
2019-Dec-05 01:20 015 6 gusting 9 4.2
2019-Dec-05 01:15 005 5 gusting 8 4.1
2019-Dec-05 01:10 020 5 gusting 8 4.1
2019-Dec-05 01:05 015 4 gusting 10 4.2
2019-Dec-05 01:00 055 6 gusting 10 4.2
2019-Dec-05 00:55 035 6 gusting 9 4.3
2019-Dec-05 00:50 010 6 gusting 9 4.3
2019-Dec-05 00:45 040 6 gusting 9 4.3
2019-Dec-05 00:40 020 5 gusting 7 4.3
2019-Dec-05 00:35 040 5 gusting 7 4.5
2019-Dec-05 00:30 010 6 gusting 9 4.5
2019-Dec-05 00:25 095 5 gusting 9 4.2
2019-Dec-05 00:20 055 6 gusting 7 4.2
2019-Dec-05 00:15 060 4 gusting 7 4.5
2019-Dec-05 00:10 095 4 gusting 7 4.5
2019-Dec-05 00:05 185 4 gusting 6 4.5
2019-Dec-05 00:00 125 4 gusting 6 4.6
2019-Dec-04 23:55 4.6
2019-Dec-04 23:50 320 5 gusting 8 4.6
2019-Dec-04 23:45 345 6 gusting 8 4.7
2019-Dec-04 23:40 005 6 gusting 7 4.6
2019-Dec-04 23:35 355 6 gusting 7 4.7
2019-Dec-04 23:30 335 4 gusting 7 4.8
2019-Dec-04 23:25 320 5 gusting 7 4.8
2019-Dec-04 23:20 290 6 gusting 7 5.0
2019-Dec-04 23:15 335 5 gusting 7 5.1
2019-Dec-04 23:10 355 6 gusting 7 5.3
2019-Dec-04 23:05 045 5 gusting 6 5.2
2019-Dec-04 23:00 095 4 gusting 6 5.3
2019-Dec-04 22:55 5.3
2019-Dec-04 22:50 010 6 gusting 8 5.3
2019-Dec-04 22:45 050 4 gusting 8 5.3
2019-Dec-04 22:40 350 5 gusting 8 5.5
2019-Dec-04 22:35 190 4 gusting 7 5.5
2019-Dec-04 22:30 085 4 gusting 7 5.5
2019-Dec-04 22:25 005 5 gusting 8 5.6
2019-Dec-04 22:20 015 5 gusting 8 5.5
2019-Dec-04 22:15 015 7 gusting 10 5.5
2019-Dec-04 22:10 010 8 gusting 11 5.5
2019-Dec-04 22:05 005 9 gusting 11 5.3
2019-Dec-04 22:00 350 9 gusting 14 5.2
2019-Dec-04 21:55 335 10 gusting 14 5.3
2019-Dec-04 21:50 345 10 gusting 14 5.5
2019-Dec-04 21:45 305 9 gusting 14 5.6
2019-Dec-04 21:40 330 7 gusting 12 5.6
2019-Dec-04 21:35 310 8 gusting 16 5.6
2019-Dec-04 21:30 315 12 gusting 16 5.7
2019-Dec-04 21:25 320 9 gusting 11 5.7
2019-Dec-04 21:20 5.8
2019-Dec-04 21:15 010 5 gusting 7 5.8
2019-Dec-04 21:10 335 6 gusting 9 6.0
2019-Dec-04 21:05 320 6 gusting 9 6.0
2019-Dec-04 21:00 305 6 gusting 8 6.0
2019-Dec-04 20:55 315 6 gusting 9 5.8
2019-Dec-04 20:50 325 7 gusting 10 5.8
2019-Dec-04 20:45 330 7 gusting 10 5.7
2019-Dec-04 20:40 335 7 gusting 13 5.7
2019-Dec-04 20:35 315 10 gusting 13 5.6
2019-Dec-04 20:30 335 8 gusting 15 5.6
2019-Dec-04 20:25 330 11 gusting 15 5.6
2019-Dec-04 20:20 335 11 gusting 20 5.6
2019-Dec-04 20:15 330 16 gusting 20 5.7
2019-Dec-04 20:10 325 12 gusting 16 6.0
2019-Dec-04 20:05 330 11 gusting 16 6.2
2019-Dec-04 20:00 330 10 gusting 14 6.3
2019-Dec-04 19:55 325 11 gusting 15 6.5
2019-Dec-04 19:50 330 13 gusting 21 6.6
2019-Dec-04 19:45 325 12 gusting 21 6.6
2019-Dec-04 19:40 315 14 gusting 18 6.6
2019-Dec-04 19:35 315 14 gusting 18 6.8
2019-Dec-04 19:30 310 9 gusting 16 7.0
2019-Dec-04 19:25 300 10 gusting 16 6.7
2019-Dec-04 19:20 305 11 gusting 16 6.7
2019-Dec-04 19:15 325 11 gusting 18 7.0
2019-Dec-04 19:10 325 13 gusting 18 6.7
2019-Dec-04 19:05 315 12 gusting 17 6.8
2019-Dec-04 19:00 325 13 gusting 17 7.1
2019-Dec-04 18:55 320 13 gusting 16 7.2
2019-Dec-04 18:50 335 10 gusting 16 7.1
2019-Dec-04 18:45 325 10 gusting 12 7.1
2019-Dec-04 18:40 315 8 gusting 14 7.0
2019-Dec-04 18:35 330 12 gusting 15 7.0
2019-Dec-04 18:30 335 12 gusting 16 7.0
2019-Dec-04 18:25 330 13 gusting 16 7.1
2019-Dec-04 18:20 330 11 gusting 17 7.0
2019-Dec-04 18:15 320 11 gusting 18 7.1
2019-Dec-04 18:10 335 12 gusting 18 7.1
2019-Dec-04 18:05 330 12 gusting 17 7.2
2019-Dec-04 18:00 340 13 gusting 17 7.0
2019-Dec-04 17:55 325 13 gusting 19 7.1
2019-Dec-04 17:50 330 15 gusting 20 7.1
2019-Dec-04 17:45 305 14 gusting 20 6.8
2019-Dec-04 17:40 300 13 gusting 18 7.0
2019-Dec-04 17:35 320 13 gusting 18 6.6
2019-Dec-04 17:30 310 12 gusting 22 7.0
2019-Dec-04 17:25 325 16 gusting 24 6.8
2019-Dec-04 17:20 320 17 gusting 21 6.6
2019-Dec-04 17:15 325 14 gusting 21 6.7
2019-Dec-04 17:10 320 14 gusting 23 7.1
2019-Dec-04 17:05 325 18 gusting 23 7.1
2019-Dec-04 17:00 325 13 gusting 21 7.6